User: anonymous   Login
Location: Unspecified
(0.0000°N, 0.0000°E)
Time: 14:50:07
(UTC+00:00)
Language:

APRIZESAT 1 (LATINSAT C) - Orbit

View from above orbital plane
View from above orbital plane
View from above satellite
View from above satellite

Ground track
Ground track

The orbit data is extracted from the following two-line orbital elements,

1 28372U 04025G   17205.84313923 -.00000003 +00000-0 +10862-4 0  9996
2 28372 098.2568 153.0510 0045948 336.5265 023.3831 14.49501919690971
Epoch (UTC): 24 July 2017 20:14:07
Eccentricity: 0.0045948
inclination: 98.2568°
perigee height: 694 km
apogee height: 760 km
right ascension of ascending node: 153.0510°
argument of perigee: 336.5265°
revolutions per day: 14.49501919
mean anomaly at epoch: 23.3831°
orbit number at epoch: 69097

The dashed part of the orbit path shows where the satellite is in the earth's shadow,  

DLR